Flag for Netherlands Weather past 2 weeks in The Hague, Netherlands

Now
59 °F

Fog.


Feels Like: 58 °F
Forecast: 60 / 66 °F
Wind: 8 mph from Southwest

Location: Rotterdam Zestienhoven Airport

Current Time: Sep 30, 2014 at 8:19:37 AM

Latest Report: Sep 30, 2014 at 7:55 AM


Visibility: 2 mi

Pressure: 30.18 "Hg

Humidity: 94%

Dew point: 57 °F

Location of The HagueLocation

Historic Weather in The Hague — Graph

°F

The Hague temperature yesterday

Maximum temperature yesterday: 66 °F (at 12:25 PM)
Minimum temperature yesterday: 54 °F (at 2:25 AM)
Average temperature yesterday: 61 °F

Past Weeks' High & Low Weather Summary

 TemperatureHumidityPressure
High79 °F (Sep 18, 1:55 PM)100% (Sep 15, 6:55 AM)30.36 "Hg (Sep 15, 6:55 AM)
Low46 °F (Sep 23, 12:25 AM)51% (Sep 17, 2:55 PM)29.80 "Hg (Sep 18, 6:25 AM)
Average61 °F83%30.04 "Hg
* Reported Sep 15 6:25 AM — Sep 30 6:55 AM, The Hague, Weather by CustomWeather, © 2014

Note: Actual official high and low records may vary slightly from our data, if they occured in-between our weather recording intervals... More about our weather records

Advertising

The Hague weather history for previous 24 hours

 ConditionsComfort  
Time TempWeatherWind HumidityBarometerVisibility
6:55 AM
Sep 30
61 °FFog.9 mph94%30.18 "Hg2 mi
6:25 AM59 °FFog.7 mph94%30.18 "Hg2 mi
5:55 AM61 °FFog.8 mph94%30.18 "Hg2 mi
5:25 AM61 °FFog.8 mph94%30.15 "Hg2 mi
4:55 AM61 °FFog.7 mph94%30.15 "Hg2 mi
4:25 AM61 °FFog.7 mph94%30.15 "Hg2 mi
3:55 AM61 °FFog.9 mph94%30.15 "Hg3 mi
3:25 AM63 °FFog.9 mph88%30.15 "Hg3 mi
2:55 AM63 °FFog.9 mph88%30.15 "Hg3 mi
2:25 AM63 °FFog.8 mph94%30.15 "Hg3 mi
1:55 AM63 °FFog.7 mph94%30.15 "Hg2 mi
1:25 AM63 °FFog.7 mph94%30.15 "Hg2 mi
12:55 AM63 °FFog.7 mph94%30.15 "Hg2 mi
12:25 AM63 °FPartly cloudy.6 mph94%30.15 "Hg2 mi
11:55 PM
Sep 29
63 °FPassing clouds.7 mph94%30.15 "Hg2 mi
11:25 PM63 °FFog.6 mph94%30.15 "Hg2 mi
10:55 PM63 °FFog.7 mph94%30.15 "Hg2 mi
10:25 PM63 °FFog.7 mph94%30.15 "Hg2 mi
9:55 PM61 °FFog.7 mph100%30.15 "Hg2 mi
9:25 PM63 °FFog.9 mph94%30.15 "Hg2 mi
8:55 PM63 °FFog.7 mph94%30.15 "Hg3 mi
8:25 PM61 °FClear.6 mph100%30.15 "Hg4 mi
7:55 PM63 °FClear.6 mph94%30.15 "Hg4 mi
7:25 PM63 °FPassing clouds.7 mph94%30.15 "Hg4 mi
6:55 PM63 °FPassing clouds.6 mph94%30.15 "Hg3 mi
6:25 PM63 °FPassing clouds.5 mph94%30.15 "Hg3 mi
5:55 PM63 °FClear.7 mph94%30.15 "Hg3 mi
5:25 PM63 °FPassing clouds.8 mph100%30.15 "Hg2 mi
4:55 PM64 °FLight rain. Scattered clouds.9 mph94%30.15 "Hg2 mi
4:25 PM64 °FLight rain. Passing clouds.10 mph88%30.15 "Hg4 mi
3:55 PM64 °FLight rain. Passing clouds.10 mph88%30.15 "Hg6 mi
3:25 PM64 °FScattered clouds.9 mph88%30.15 "Hg6 mi
2:55 PM66 °FPartly sunny.12 mph78%30.15 "HgN/A
2:25 PM66 °FPartly sunny.10 mph78%30.15 "HgN/A
1:55 PM66 °FOvercast.9 mph78%30.12 "HgN/A
1:25 PM66 °FClear.7 mph78%30.12 "HgN/A
12:55 PM64 °FClear.7 mph83%30.15 "HgN/A
12:25 PM66 °FClear.8 mph78%30.15 "HgN/A
11:55 AM64 °FClear.6 mph83%30.15 "HgN/A
11:25 AM64 °FClear.5 mph83%30.15 "HgN/A
10:55 AM63 °FClear.6 mph88%30.15 "HgN/A
10:25 AM63 °FClear.7 mph88%30.15 "Hg5 mi
9:55 AM63 °FClear.6 mph88%30.12 "Hg6 mi
9:25 AM61 °FClear.5 mph88%30.12 "Hg6 mi
8:55 AM59 °FClear.2 mph94%30.12 "Hg6 mi
8:25 AM59 °FClear.3 mph94%30.12 "Hg5 mi
Weather by CustomWeather, © 2014

See weather overviewHow to use our weather pages